Snowfall_Accumulation
0.0 0.0 0.0 0.0 0.0 0.0 0.0 0.0 0.0 0.0 0.0 0.0 0.0 0.0 0.0 0.0 0.0 0.0 0.0 0.0 0.0 0.0 0.0 0.0 0.0 0.0 0.0 0.0 0.0 0.0 0.0 0.0 0.0 0.0 0.0 0.0 0.0 0.0 0.0 0.0 0.0 0.0 0.0
0.0 0.0 0.0 0.0 0.0 0.0 0.0 0.0 0.0 0.0 0.0 0.0 0.0 0.0 0.0 0.0 0.0 0.0 0.0 0.0 0.0 0.0 0.0 0.0 0.0 0.0 0.0 0.0 0.0 0.0 0.0 0.0 0.2 0.4 0.0 0.0 0.0 0.0 0.0 0.0 0.0 0.1 0.2
0.0 0.0 0.0 0.0 0.0 0.0 0.0 0.0 0.0 0.0 0.0 0.0 0.0 0.0 0.0 0.0 0.0 0.0 0.0 0.0 0.0 0.0 0.0 0.0 0.0 0.0 0.0 0.0 0.0 0.0 0.0 0.0 0.2 0.5 0.1 0.0 0.0 0.0 0.0 0.0 0.0 0.0 0.0
0.0 0.0 0.0 0.0 0.0 0.0 0.0 0.0 0.0 0.0 0.0 0.0 0.0 0.0 0.0 0.0 0.0 0.0 0.0 0.0 0.0 0.0 0.0 0.0 0.0 0.0 0.0 0.0 0.0 0.0 0.2 0.3 0.3 0.3 0.3 1.0 0.5 0.1 0.6 0.2 0.0 0.0 0.0
0.0 0.0 0.0 0.0 0.0 0.0 0.0 0.0 0.0 0.0 0.0 0.0 0.0 0.0 0.0 0.0 0.0 0.0 0.0 0.0 0.0 0.0 0.0 0.0 0.0 0.0 0.0 0.0 0.2 0.1 0.3 0.3 1.2 3.0 2.8 1.6 0.9 0.3 0.1 0.0 0.1 0.0 0.0
0.0 0.0 0.0 0.0 0.0 0.0 0.0 0.0 0.0 0.0 0.0 0.0 0.0 0.0 0.0 0.0 0.0 0.0 0.0 0.0 0.0 0.0 0.0 0.0 0.0 0.0 0.0 0.1 0.0 0.2 0.5 1.8 3.5 4.4 3.5 1.6 0.0 0.1 0.1 0.2 1.2 1.9 1.8
0.0 0.0 0.0 0.0 0.0 0.0 0.0 0.0 0.0 0.0 0.0 0.0 0.0 0.0 0.0 0.0 0.0 0.0 0.0 0.0 0.0 0.0 0.0 0.0 0.0 0.0 0.0 0.0 0.0 0.4 1.0 2.5 2.6 0.9 0.5 0.3 0.5 0.1 2.0 3.7 2.6 2.5 1.4
0.0 0.0 0.0 0.0 0.0 0.0 0.0 0.0 0.0 0.0 0.0 0.1 0.0 0.0 0.0 0.0 0.0 0.0 0.0 0.0 0.0 0.0 0.0 0.0 0.0 0.0 0.1 0.3 0.7 2.7 1.7 0.5 0.0 0.1 0.2 0.4 1.1 1.5 1.9 2.1 1.0 1.0 0.5
0.0 0.0 0.0 0.0 0.0 0.0 0.0 0.1 0.0 0.0 0.0 0.0 0.0 0.0 0.0 0.0 0.0 0.0 0.0 0.0 0.0 0.0 0.0 0.0 0.2 0.1 0.1 0.7 2.4 1.9 0.2 0.0 0.0 0.0 0.7 0.6 0.1 0.0 0.1 1.9 2.9 2.9 2.0
0.0 1.2 0.0 0.0 0.0 1.2 0.9 0.4 0.2 0.0 0.0 0.0 0.0 0.0 0.0 0.0 0.0 0.0 0.0 0.0 0.0 0.0 0.0 0.2 0.0 0.2 0.5 3.1 1.4 0.3 0.6 0.1 0.8 0.7 0.0 0.0 0.0 0.0 0.0 0.2 3.8 8.8 4.1
0.0 0.0 0.0 0.0 0.0 0.0 0.5 0.1 0.0 0.0 0.0 0.0 0.0 0.0 0.0 0.0 0.0 0.0 0.0 0.1 0.1 0.8 0.7 0.1 0.0 0.3 2.6 0.9 0.3 0.1 0.3 0.1 0.2 0.1 0.0 0.0 0.0 0.0 0.2 0.5 1.8 8.9 11.1
0.2 2.2 1.7 0.8 0.0 0.0 0.0 0.0 0.0 0.0 0.0 0.0 0.0 0.0 0.0 0.0 0.0 0.0 0.1 0.1 0.5 0.7 0.4 0.2 0.6 2.1 0.0 0.1 0.0 0.2 0.3 0.5 0.0 0.2 0.2 0.2 0.2 0.3 0.1 0.3 0.8 2.0 3.8
0.5 0.1 0.0 0.0 0.0 0.0 0.0 0.0 0.0 0.0 0.0 0.0 0.0 0.0 0.0 0.0 0.0 0.0 0.0 0.7 0.7 0.5 0.4 1.2 1.2 0.0 0.0 0.0 0.0 0.0 0.0 0.1 0.5 1.5 1.0 0.4 0.2 0.7 1.1 3.8 4.3 4.5 4.8
0.0 0.0 0.0 0.0 0.0 0.0 0.0 0.0 0.0 0.0 0.0 0.0 0.0 0.0 0.0 0.0 0.0 0.0 0.2 0.4 0.2 0.4 1.7 1.0 0.1 0.0 0.0 0.0 0.0 0.0 0.0 0.2 1.7 3.2 3.4 2.1 2.4 3.8 4.0 5.0 7.4 6.4 8.4
0.0 0.0 0.0 0.0 0.0 0.0 0.0 0.0 0.0 0.0 0.0 0.0 0.0 0.1 0.0 0.0 0.0 0.4 0.6 0.3 1.0 1.6 0.6 0.0 0.0 0.0 0.0 0.0 0.0 0.0 0.0 0.0 1.1 1.6 3.2 3.3 3.3 4.3 4.6 6.1 8.9 10.2 9.9
0.0 0.0 0.0 0.0 0.0 0.0 0.0 0.0 0.0 0.0 0.0 0.0 0.0 0.1 0.0 0.2 0.2 0.4 0.1 1.3 1.4 0.0 0.0 0.0 0.0 0.1 0.0 0.2 0.1 0.2 0.1 0.3 1.4 3.0 3.0 3.1 4.7 5.9 7.0 8.5 10.3 10.4 9.2
0.0 0.0 0.0 0.0 0.0 0.0 0.0 0.0 0.0 0.0 0.0 0.0 0.0 0.0 0.1 0.2 0.1 0.0 0.9 1.4 0.1 0.0 0.0 0.3 0.2 0.2 0.1 0.3 0.3 1.2 1.6 1.2 3.1 4.7 5.4 5.7 6.5 7.1 7.8 9.3 8.7 8.1 6.4
0.0 0.0 0.0 0.0 0.0 0.0 0.0 0.0 0.0 0.0 0.0 0.0 0.0 0.0 0.1 0.1 0.1 0.5 0.8 0.0 0.0 0.0 0.2 0.5 0.2 0.2 0.3 1.0 1.5 2.6 3.0 2.6 4.1 5.0 6.3 6.5 7.0 9.0 9.4 9.3 7.8 6.6 5.4
0.0 0.0 0.0 0.0 0.0 0.0 0.0 0.0 0.0 0.0 0.0 0.0 0.0 0.0 0.0 0.0 0.2 0.6 0.1 0.0 0.0 0.3 0.3 0.2 0.2 0.2 0.7 1.4 2.0 2.8 3.5 5.8 7.8 8.8 7.6 7.7 7.9 10.1 9.0 6.6 5.4 3.0 1.8
0.0 0.0 0.0 0.0 0.0 0.0 0.0 0.0 0.0 0.0 0.0 0.0 0.0 0.0 0.0 0.2 1.1 0.0 0.0 0.0 0.1 0.3 0.2 0.2 0.2 0.2 1.0 1.7 2.6 3.1 4.5 4.7 6.0 6.3 6.9 7.6 8.4 8.9 7.8 4.7 2.5 2.4 1.5
0.0 0.0 0.0 0.0 0.0 0.0 0.0 0.0 0.0 0.1 0.2 0.0 0.0 0.0 0.3 0.3 0.1 0.0 0.0 0.1 0.2 0.2 0.3 0.3 0.2 0.6 1.0 1.8 2.5 3.5 5.2 5.7 6.3 7.9 7.8 7.8 7.6 6.1 2.7 1.8 1.7 1.9 2.1
0.0 0.0 0.0 0.0 0.0 0.0 0.0 0.0 0.0 0.0 0.0 0.1 0.0 0.0 0.3 0.0 0.0 0.0 0.2 0.1 0.1 0.1 0.1 0.4 0.7 0.9 2.4 4.7 6.2 6.5 5.5 6.0 6.7 7.8 7.1 5.7 4.2 2.1 1.4 1.0 1.0 1.8 1.8
0.0 0.0 0.0 0.0 0.0 0.1 0.0 0.0 0.0 0.0 0.0 0.1 0.1 0.0 0.0 0.0 0.0 0.1 0.1 0.0 0.1 0.1 0.1 0.2 1.1 1.3 0.7 3.1 6.2 10.2 10.9 8.3 8.3 8.2 6.9 4.9 3.2 2.8 3.1 2.9 2.0 1.4 0.8
0.0 0.0 0.0 0.0 0.0 0.0 0.0 0.0 0.0 0.0 0.1 0.1 0.0 0.0 0.0 0.1 0.1 0.0 0.0 0.1 0.1 0.1 0.0 0.2 1.2 2.0 2.5 3.4 5.9 8.0 10.5 10.7 10.3 9.3 9.7 8.5 4.7 2.8 1.9 1.7 1.0 0.9 0.8
0.0 0.0 0.0 0.0 0.0 0.0 0.0 0.0 0.1 0.1 0.0 0.0 0.0 0.1 0.0 0.0 0.0 0.0 0.0 0.1 0.1 0.1 0.0 0.0 1.0 2.4 3.4 5.1 6.7 7.6 8.4 7.6 7.9 5.8 3.0 2.0 2.2 1.9 1.6 1.7 0.6 0.3 0.3
0.0 0.0 0.0 0.0 0.0 0.0 0.0 0.0 0.0 0.0 0.1 0.1 0.2 0.2 0.1 0.1 0.1 0.1 0.1 0.1 0.1 0.0 0.0 0.1 0.8 2.1 3.0 4.6 5.8 7.2 7.3 6.7 4.5 1.8 0.6 0.8 1.1 1.0 0.7 0.6 0.4 0.2 0.2